Hourly Data Report for October 10, 2016

All times are specified in Local Standard Time (LST). Add 1 hour to adjust for Daylight Saving Time where and when it is observed.

BATHURST A
NEW BRUNSWICK

47°37'47.000" N
65°44'20.000" W
58.80 m
8100505
71574
ZBF

Download Data

Hourly Data (October 2016)
Hourly Data Report for October 10, 2016
Temp Definition
°C
Dew Point Temp Definition
°C
Rel Hum Definition
%
Wind Dir Definition
10's deg

Wind Spd Definition
km/h
Visibility Definition
km
Stn Press Definition
kPa
Hmdx Definition


Wind Chill Definition


Weather Definition


TIME
00:00 Legend Double Dagger 8.3 2.6 67 33 8 24.1 101.11     LegendNANA
01:00 Legend Double Dagger 8.1 3.0 70 33 10 24.1 101.02     LegendNANA
02:00 Legend Double Dagger 7.9 3.2 72 36 3 19.3 101.02     Cloudy
03:00 Legend Double Dagger 7.9 3.2 72 36 6 24.1 101.00     LegendNANA
04:00 Legend Double Dagger 7.8 3.3 73 34 10 24.1 100.90     LegendNANA
05:00 Legend Double Dagger 7.7 3.4 74 34 12 24.1 100.91     Cloudy
06:00 Legend Double Dagger 7.7 3.8 76 35 11 24.1 100.87     LegendNANA
07:00 Legend Double Dagger 8.2 3.9 74 35 10 24.1 100.88     LegendNANA
08:00 Legend Double Dagger 8.9 4.0 71 35 14 24.1 100.85     Cloudy
09:00 Legend Double Dagger 9.0 3.7 69 36 10 24.1 100.92     LegendNANA
10:00 Legend Double Dagger 9.8 3.8 66 36 18 24.1 100.91     LegendNANA
11:00 Legend Double Dagger 10.0 3.3 63 1 20 24.1 100.88     Mostly Cloudy
12:00 Legend Double Dagger 9.6 2.7 62 1 23 24.1 100.83     LegendNANA
13:00 Legend Double Dagger 10.9 2.8 57 36 22 24.1 100.80     LegendNANA
14:00 Legend Double Dagger 10.3 2.2 57 34 27 24.1 100.81     Mostly Cloudy
15:00 Legend Double Dagger 10.7 0.7 50 1 30 24.1 100.87     LegendNANA
16:00 Legend Double Dagger 10.0 0.9 53 36 20 24.1 100.99     LegendNANA
17:00 Legend Double Dagger 9.1 0.8 56 35 18 24.1 101.03     Mostly Cloudy
18:00 Legend Double Dagger 7.5 0.0 59 34 16 24.1 101.13     LegendNANA
19:00 Legend Double Dagger 6.7 -1.0 58 34 10 24.1 101.22     LegendNANA
20:00 Legend Double Dagger 6.3 -0.9 60 34 12 24.1 101.31     Clear
21:00 Legend Double Dagger 5.6 -1.1 62 35 11 24.1 101.38     LegendNANA
22:00 Legend Double Dagger 4.7 -0.5 69 33 9 24.1 101.41     LegendNANA
23:00 Legend Double Dagger 3.6 -0.8 73 25 4 24.1 101.44     Clear

Notes on Data Quality.

Legend

  • E = Estimated
  • M = Missing
  • NA = Not Available
  • ‡ = Partner data that is not subject to review by the National Climate Archives
Date modified: